Regional Weather Roundup
Issued by NWS

Home | Current Version | Previous Version | Text Only | Print | Product List | Glossary On
Versions: 1 2 3 4 5 6 7 8 9 10 11 12 13 14 15 16 17 18 19 20 21 22 23 24 25 26 27 28 29 30 31 32 33 34 35 36 37 38 39 40 41 42 43 44 45 46 47 48 49
000
ASUS43 KDMX 021707
RWRIA

WEATHER ROUNDUP FOR IOWA
NATIONAL WEATHER SERVICE DES MOINES IA
1200 PM CDT SUN AUG 02 2015

NOTE: "FAIR" INDICATES FEW OR NO CLOUDS BELOW 12,000 FEET WITH NO
SIGNIFICANT WEATHER AND/OR OBSTRUCTIONS TO VISIBILITY.

* - THESE STATIONS ARE NOT NWS STATIONS...THUS NOT UNDER NWS
QUALITY CONTROL.  THEY ALSO DO NOT REPORT WEATHER SUCH
AS PRECIPITATION OR FOG.

IAZ001>003-012>014-020>022-031>034-043>046-021800-
   NORTHWEST IOWA

CITY           SKY/WX    TMP DP  RH WIND       PRES   REMARKS
CARROLL *      SUNNY     84  73  70 W13       29.81S HX  91
CHEROKEE *     SUNNY     82  73  74 SW9       29.79S HX  88
DENISON *      SUNNY     82  73  74 SW13      29.80S HX  88
LE MARS *      SUNNY     82  72  69 SW7       29.81R HX  87
ORANGE CITY *  SUNNY     81  68  65 W13       29.81R HX  83
SHELDON *      SUNNY     82  72  69 W13       29.80R HX  87
SPENCER        MOSUNNY   86  69  56 W10       29.78S HX  90
STORM LAKE *   SUNNY     82  73  74 SW10      29.81S HX  88
$$

IAZ055>058-069>071-079>083-090>094-021800-
   SOUTHWEST IOWA

CITY           SKY/WX    TMP DP  RH WIND       PRES   REMARKS
ATLANTIC *     SUNNY     86  75  70 SW15G23   29.84R HX  95
AUDUBON *      SUNNY     84  75  74 SW12G17   29.84F HX  92
CLARINDA *     SUNNY     86  75  70 SW12      29.88S HX  95
COUNCIL BLFS * SUNNY     88  73  62 SW16      29.84F HX  96
CRESTON *      SUNNY     84  75  74 SW14G21   29.87F HX  92
HARLAN  *      SUNNY     84  81  89 W13G20    29.86F HX  98
LAMONI         SUNNY     86  75  69 W15G22    29.87S HX  95
RED OAK *      SUNNY     86  75  70 SW17      29.85S HX  95
SHENANDOAH *   SUNNY     86  77  74 SW12G17   29.86F HX  97
$$

IAZ047>049-059>061-072>074-084-021800-
   CENTRAL IOWA

CITY           SKY/WX    TMP DP  RH WIND       PRES   REMARKS
AMES           SUNNY     84  73  69 W15       29.79S HX  90
ANKENY *       SUNNY     88  73  62 W20G26    29.80S HX  96
CHARITON *     SUNNY     86  73  66 SW12      29.84S HX  93
DES MOINES     MOSUNNY   89  71  55 W22G28    29.80F HX  95
GRINNELL*      SUNNY     84  73  70 SW12      29.81F HX  91
KNOXVILLE *    SUNNY     86  73  66 SW14G20   29.81F HX  93
MARSHALLTOWN   SUNNY     85  74  69 SW18G24   29.78F HX  92
PELLA *        SUNNY     86  77  74 SW8       29.83F HX  97
PERRY *          N/A     86  75  70 W14       29.81F HX  95
$$

IAZ004>006-015-016-023>025-035-036-021800-
   NORTH CENTRAL IOWA

CITY           SKY/WX    TMP DP  RH WIND       PRES   REMARKS
ALGONA *       SUNNY     84  73  70 SW12      29.76S HX  91
CLARION *      SUNNY     82  73  74 W13       29.77S HX  88
ESTHERVILLE    SUNNY     83  67  58 W13G22    29.77R HX  85
FORT DODGE *   SUNNY     84  72  65 SW13      29.79S HX  89
MASON CITY     SUNNY     85  72  65 W16       29.75F HX  91
FOREST CITY *  SUNNY     82  72  69 SW10G17   29.75S HX  87
IOWA FALLS *     N/A     84  72  65 SW15      29.78F HX  89
$$

IAZ007>011-017>019-026>030-037>042-050>054-066-021800-
   NORTHEAST IOWA

CITY           SKY/WX    TMP DP  RH WIND       PRES   REMARKS
CEDAR RAPIDS   MOSUNNY   83  73  72 SW17G23   29.80F HX  89
CHARLES CITY * SUNNY     84  75  74 SW13G18   29.74S HX  92
CLINTON *      SUNNY     84  70  61 SW13G23   29.83S HX  88
DECORAH *      SUNNY     82  72  69 SW12G18   29.70F HX  87
DUBUQUE        SUNNY     83  69  62 SW15      29.79S HX  86
MONTICELLO *   MOSUNNY   82  70  65 SW15      29.79S HX  86
OELWEIN *      SUNNY     82  70  65 SW13G21   29.77F HX  86
WATERLOO       SUNNY     85  72  65 SW14      29.75F HX  91
$$

IAZ064-065-067-068-078-021800-
   EAST CENTRAL IOWA

CITY           SKY/WX    TMP DP  RH WIND       PRES   REMARKS
DAVENPORT      MOSUNNY   82  68  62 SW9G21    29.82F HX  85
IOWA CITY      MOSUNNY   85  71  63 SW10      29.82S HX  90
MT. PLEASANT * MOSUNNY   84  70  61 SW12G17   29.85S HX  88
MUSCATINE *    SUNNY     86  70  58 W16       29.82S HX  90
QUAD CITIES    SUNNY     86  67  52 SW14G21   29.81F HX  89
$$

IAZ062-063-075>077-085>089-095>099-021800-
   SOUTHEAST IOWA

CITY           SKY/WX    TMP DP  RH WIND       PRES   REMARKS
BURLINGTON     MOSUNNY   84  73  69 SW12G20   29.85F HX  90
FAIRFIELD *    SUNNY     84  72  65 SW10G17   29.85S HX  89
FORT MADISON * SUNNY     84  72  65 SW10      29.87S HX  89
KEOKUK *       SUNNY     84  73  70 SW14      29.86F HX  91
OSKALOOSA *      N/A     84  73  70 SW9G16    29.83F HX  91
CENTERVILLE *  SUNNY     84  73  70 SW12      29.88S HX  91
OTTUMWA        SUNNY     85  74  69 SW13      29.82F HX  92
WASHINGTON *   SUNNY     84  73  70 SW14G20   29.85S HX  91
$$

ABBREVIATIONS USED IN REMARKS
   TC - TEMPERATURES IN CELSIUS
  WCI - WIND CHILL INDEX
   HX - HEAT INDEX
  VSB - VISIBILITY
$$




USA.gov is the U.S. government's official web portal to all federal, state and local government web resources and services.